GW3580 Weather Reports


Display with metric or nautical units.
time (UTC)temp
F
wind
direction
speed
MPH
gust
MPH
rain 1hr
in
rain 24hr
in
rain mn
in
humidity
%
barometer
mb
20260901212058 79 5 1.0 2.0 0.00 0.00 0.00 34 1013.8
20260901211553 78 32 1.0 1.0 0.00 0.00 0.00 34 1013.9
20260901211049 78 265 2.0 4.0 0.00 0.00 0.00 36 1013.7
20260901210544 79 240 2.0 2.0 0.00 0.00 0.00 35 1014.1
20260901210041 78 74 0.0 0.0 0.00 0.00 0.00 34 1014.0
20260901205535 77 224 3.0 4.0 0.00 0.00 0.00 35 1014.1
20260901205030 77 240 3.0 4.0 0.00 0.00 0.00 35 1014.2
20260901204526 78 323 1.0 1.0 0.00 0.00 0.00 35 1014.0
20260901204021 78 10 2.0 2.0 0.00 0.00 0.00 35 1014.0
20260901203515 77 82 2.0 2.0 0.00 0.00 0.00 36 1014.3
20260901203010 76 353 1.0 1.0 0.00 0.00 0.00 37 1014.3
20260901202505 77 30 1.0 1.0 0.00 0.00 0.00 36 1014.4
20260901202001 76 28 4.0 6.0 0.00 0.00 0.00 36 1014.5
20260901201456 76 251 4.0 5.0 0.00 0.00 0.00 38 1014.5
20260901200950 75 290 3.0 4.0 0.00 0.00 0.00 39 1014.6
20260901200445 75 324 1.0 1.0 0.00 0.00 0.00 38 1014.4
20260901195944 74 263 5.0 6.0 0.00 0.00 0.00 39 1014.7
20260901195443 75 262 2.0 4.0 0.00 0.00 0.00 39 1014.7
20260901194937 75 243 1.0 2.0 0.00 0.00 0.00 38 1014.9
20260901194433 76 75 1.0 1.0 0.00 0.00 0.00 36 1015.0
20260901193929 75 214 1.0 2.0 0.00 0.00 0.00 40 1015.1
20260901193428 73 258 4.0 4.0 0.00 0.00 0.00 39 1015.0
20260901192927 74 348 0.0 1.0 0.00 0.00 0.00 38 1015.0
20260901192423 74 240 6.0 7.0 0.00 0.00 0.00 38 1015.1
20260901191919 74 269 2.0 4.0 0.00 0.00 0.00 42 1015.2
20260901191415 73 157 0.0 1.0 0.00 0.00 0.00 41 1015.2
20260901190910 73 309 1.0 1.0 0.00 0.00 0.00 40 1015.3
20260901190405 72 44 0.0 0.0 0.00 0.00 0.00 41 1015.3
20260901185903 74 218 4.0 5.0 0.00 0.00 0.00 40 1015.5
20260901185403 73 98 0.0 1.0 0.00 0.00 0.00 42 1015.4
20260901184857 73 20 0.0 0.0 0.00 0.00 0.00 42 1015.6
20260901184353 71 278 2.0 2.0 0.00 0.00 0.00 43 1015.4
20260901183848 71 345 2.0 4.0 0.00 0.00 0.00 43 1015.7
20260901183347 70 257 3.0 4.0 0.00 0.00 0.00 45 1015.6
20260901182844 71 246 5.0 6.0 0.00 0.00 0.00 45 1015.5
20260901182344 71 262 5.0 6.0 0.00 0.00 0.00 45 1015.6
20260901181838 71 41 0.0 1.0 0.00 0.00 0.00 44 1015.4
20260901181333 70 241 1.0 1.0 0.00 0.00 0.00 45 1015.4
20260901180832 70 266 3.0 4.0 0.00 0.00 0.00 46 1015.5
20260901180332 71 231 2.0 2.0 0.00 0.00 0.00 46 1015.6
20260901175831 70 197 0.0 1.0 0.00 0.00 0.00 46 1015.8
20260901175325 70 243 4.0 6.0 0.00 0.00 0.00 46 1015.6
20260901174820 70 239 3.0 4.0 0.00 0.00 0.00 47 1015.7
20260901174316 69 250 0.0 1.0 0.00 0.00 0.00 49 1015.6
20260901173811 69 254 4.0 5.0 0.00 0.00 0.00 46 1015.6
20260901173306 69 233 5.0 8.0 0.00 0.00 0.00 48 1015.4
20260901172803 68 244 2.0 4.0 0.00 0.00 0.00 51 1015.7
20260901172304 68 242 3.0 4.0 0.00 0.00 0.00 49 1015.4
20260901171800 68 241 5.0 7.0 0.00 0.00 0.00 50 1015.3
20260901171259 68 277 5.0 6.0 0.00 0.00 0.00 50 1015.3
20260901170759 68 144 1.0 1.0 0.00 0.00 0.00 50 1015.6
20260901170253 68 269 1.0 1.0 0.00 0.00 0.00 51 1015.5
20260901165752 68 110 2.0 2.0 0.00 0.00 0.00 50 1015.5
20260901165247 67 243 1.0 2.0 0.00 0.00 0.00 51 1015.6
20260901164743 66 250 3.0 5.0 0.00 0.00 0.00 53 1015.4
20260901164239 66 251 5.0 6.0 0.00 0.00 0.00 53 1015.2
20260901163733 66 249 4.0 5.0 0.00 0.00 0.00 53 1015.6
20260901163232 66 245 2.0 4.0 0.00 0.00 0.00 55 1015.2
20260901162728 66 261 7.0 7.0 0.00 0.00 0.00 54 1015.1
20260901162227 66 158 1.0 2.0 0.00 0.00 0.00 55 1015.2
20260901161726 66 46 1.0 2.0 0.00 0.00 0.00 55 1015.3
20260901161221 65 12 1.0 1.0 0.00 0.00 0.00 57 1015.0
20260901160717 64 18 2.0 4.0 0.00 0.00 0.00 57 1015.1
20260901160212 63 230 2.0 2.0 0.00 0.00 0.00 58 1014.9
20260901155711 64 161 1.0 1.0 0.00 0.00 0.00 59 1014.9
20260901155207 63 192 1.0 1.0 0.00 0.00 0.00 59 1014.6
20260901154702 63 207 3.0 4.0 0.00 0.00 0.00 60 1014.5
20260901154156 63 82 1.0 1.0 0.00 0.00 0.00 61 1014.8
20260901153652 62 275 2.0 2.0 0.00 0.00 0.00 62 1014.5
20260901153151 62 241 4.0 5.0 0.00 0.00 0.00 62 1014.6
20260901152646 62 276 1.0 2.0 0.00 0.00 0.00 63 1014.6
20260901152144 62 250 2.0 2.0 0.00 0.00 0.00 63 1014.6
20260901151641 62 19 1.0 2.0 0.00 0.00 0.00 64 1014.5
20260901151140 60 306 2.0 2.0 0.00 0.00 0.00 65 1014.6
20260901150639 60 121 1.0 1.0 0.00 0.00 0.00 66 1014.5
20260901150132 60 150 2.0 2.0 0.00 0.00 0.00 67 1014.5
20260901145630 60 193 2.0 2.0 0.00 0.00 0.00 68 1014.6
20260901145130 60 261 1.0 2.0 0.00 0.00 0.00 68 1014.4
20260901144626 59 233 1.0 1.0 0.00 0.00 0.00 69 1014.4
20260901144121 59 144 1.0 1.0 0.00 0.00 0.00 70 1014.5
20260901143616 59 251 1.0 2.0 0.00 0.00 0.00 70 1014.7
20260901143112 58 12 1.0 2.0 0.00 0.00 0.00 71 1014.3
20260901142608 57 36 0.0 0.0 0.00 0.00 0.00 72 1014.3
20260901142107 57 258 2.0 4.0 0.00 0.00 0.00 73 1014.2
20260901141602 57 58 0.0 0.0 0.00 0.00 0.00 73 1014.3
20260901141057 57 261 2.0 2.0 0.00 0.00 0.00 74 1013.9
20260901140555 57 269 2.0 2.0 0.00 0.00 0.00 74 1014.0
20260901140055 57 38 0.0 0.0 0.00 0.00 0.00 75 1013.9
20260901135555 57 266 1.0 2.0 0.00 0.00 0.00 74 1013.9
20260901135050 57 276 0.0 1.0 0.00 0.00 0.00 74 1013.8
20260901134547 57 247 3.0 4.0 0.00 0.00 0.00 74 1013.9
20260901134047 57 271 3.0 4.0 0.00 0.00 0.00 74 1013.8
20260901133546 57 280 3.0 6.0 0.00 0.00 0.00 74 1013.8
20260901133044 57 252 2.0 2.0 0.00 0.00 0.00 74 1013.8
20260901132539 57 254 4.0 5.0 0.00 0.00 0.00 74 1013.7
20260901132038 57 264 2.0 2.0 0.00 0.00 0.00 74 1013.5
20260901131532 57 281 0.0 1.0 0.00 0.00 0.00 74 1013.3
20260901131023 57 249 1.0 1.0 0.00 0.00 0.00 73 1013.3
20260901130522 57 267 3.0 4.0 0.00 0.00 0.00 73 1013.1
20260901130021 57 248 2.0 2.0 0.00 0.00 0.00 73 1013.1
20260901125520 58 258 2.0 4.0 0.00 0.00 0.00 73 1012.9
20260901125015 58 237 1.0 2.0 0.00 0.00 0.00 72 1012.8
20260901124509 58 246 2.0 2.0 0.00 0.00 0.00 72 1013.1
20260901124004 58 288 2.0 2.0 0.00 0.00 0.00 72 1012.6
20260901123459 58 280 1.0 1.0 0.00 0.00 0.00 72 1012.8
20260901122957 58 147 0.0 1.0 0.00 0.00 0.00 72 1012.8
20260901122456 58 353 1.0 1.0 0.00 0.00 0.00 72 1012.6
20260901121951 58 14 4.0 6.0 0.00 0.00 0.00 72 1012.7
20260901121446 58 66 0.0 1.0 0.00 0.00 0.00 72 1012.8
20260901120941 58 14 0.0 0.0 0.00 0.00 0.00 71 1012.8
20260901120441 58 124 0.0 0.0 0.00 0.00 0.00 72 1012.6
20260901115937 59 50 0.0 0.0 0.00 0.00 0.00 72 1013.0
20260901115437 59 200 1.0 1.0 0.00 0.00 0.00 71 1012.8
20260901114934 59 219 1.0 2.0 0.00 0.00 0.00 72 1012.8
20260901114429 58 278 0.0 1.0 0.00 0.00 0.00 71 1013.0
20260901113927 58 339 1.0 1.0 0.00 0.00 0.00 71 1012.7
20260901113426 58 33 0.0 0.0 0.00 0.00 0.00 71 1012.6
20260901112922 58 69 0.0 0.0 0.00 0.00 0.00 71 1012.7
20260901112417 58 58 0.0 1.0 0.00 0.00 0.00 71 1012.6
20260901111912 59 55 0.0 0.0 0.00 0.00 0.00 70 1012.4
20260901111410 59 82 1.0 1.0 0.00 0.00 0.00 70 1012.2
20260901110909 59 57 0.0 1.0 0.00 0.00 0.00 69 1012.4
20260901110405 60 48 0.0 1.0 0.00 0.00 0.00 69 1012.4
20260901105901 60 359 1.0 1.0 0.00 0.00 0.00 69 1012.4
20260901105356 60 16 0.0 0.0 0.00 0.00 0.00 68 1012.4
20260901104852 60 74 0.0 0.0 0.00 0.00 0.00 68 1012.2
20260901104347 60 229 0.0 1.0 0.00 0.00 0.00 68 1012.4
20260901103842 60 256 1.0 2.0 0.00 0.00 0.00 69 1012.3
20260901103337 61 23 1.0 1.0 0.00 0.00 0.00 68 1012.0
20260901102832 61 245 2.0 4.0 0.00 0.00 0.00 67 1012.0
20260901102332 61 243 1.0 2.0 0.00 0.00 0.00 67 1012.1
20260901101827 61 242 2.0 2.0 0.00 0.00 0.00 67 1011.9
20260901101326 61 254 2.0 2.0 0.00 0.00 0.00 67 1012.0
20260901100821 61 249 2.0 2.0 0.00 0.00 0.00 67 1012.0
20260901100316 61 273 3.0 4.0 0.00 0.00 0.00 66 1011.8
20260901095814 61 282 1.0 1.0 0.00 0.00 0.00 66 1011.8
20260901095312 61 270 4.0 5.0 0.00 0.00 0.00 65 1011.6
20260901094807 62 260 1.0 2.0 0.00 0.00 0.00 66 1011.9
20260901094302 62 252 1.0 2.0 0.00 0.00 0.00 66 1011.9
20260901093756 62 230 3.0 4.0 0.00 0.00 0.00 65 1011.8
20260901093255 62 283 3.0 4.0 0.00 0.00 0.00 66 1011.9
20260901092751 62 258 2.0 2.0 0.00 0.00 0.00 66 1012.0
20260901092248 62 261 2.0 2.0 0.00 0.00 0.00 66 1011.8
20260901091742 62 259 4.0 5.0 0.00 0.00 0.00 65 1012.0
20260901091237 62 284 4.0 4.0 0.00 0.00 0.00 66 1011.8
20260901090732 62 262 3.0 4.0 0.00 0.00 0.00 66 1012.0
20260901090227 62 262 2.0 2.0 0.00 0.00 0.00 66 1011.7
20260901085723 63 209 3.0 4.0 0.00 0.00 0.00 66 1011.7
20260901085218 63 271 3.0 4.0 0.00 0.00 0.00 66 1011.9
20260901084715 63 254 2.0 2.0 0.00 0.00 0.00 65 1011.7
20260901084211 63 298 5.0 6.0 0.00 0.00 0.00 65 1011.7
20260901083705 63 226 3.0 4.0 0.00 0.00 0.00 65 1011.7
20260901083204 63 241 2.0 2.0 0.00 0.00 0.00 65 1011.8
20260901082703 64 247 4.0 5.0 0.00 0.00 0.00 64 1011.6
20260901082159 64 246 2.0 4.0 0.00 0.00 0.00 64 1011.7
20260901081655 64 265 2.0 2.0 0.00 0.00 0.00 64 1011.6
20260901081154 64 21 1.0 1.0 0.00 0.00 0.00 64 1011.8
20260901080649 64 348 1.0 2.0 0.00 0.00 0.00 63 1011.6
20260901080148 64 120 2.0 2.0 0.00 0.00 0.00 63 1011.5
20260901075643 64 190 1.0 1.0 0.00 0.00 0.00 63 1011.7
20260901075143 65 252 3.0 4.0 0.00 0.00 0.00 63 1011.4
20260901074642 65 69 0.0 1.0 0.00 0.00 0.00 63 1011.5
20260901074137 65 251 1.0 2.0 0.00 0.00 0.00 62 1011.5
20260901073634 65 219 3.0 4.0 0.00 0.00 0.00 63 1011.6
20260901073129 65 230 2.0 2.0 0.00 0.00 0.00 62 1011.3
20260901072624 65 251 3.0 5.0 0.00 0.00 0.00 63 1011.6
20260901072119 65 256 3.0 5.0 0.00 0.00 0.00 62 1011.2
20260901071614 66 282 1.0 2.0 0.00 0.00 0.00 62 1011.3
20260901071113 66 260 3.0 4.0 0.00 0.00 0.00 62 1011.1
20260901070607 66 243 4.0 5.0 0.00 0.00 0.00 62 1011.2
20260901070103 66 244 3.0 4.0 0.00 0.00 0.00 61 1011.1
20260901065556 66 232 3.0 4.0 0.00 0.00 0.00 61 1010.9
20260901065051 66 228 4.0 5.0 0.00 0.00 0.00 60 1011.0
20260901064549 66 254 2.0 2.0 0.00 0.00 0.00 60 1011.1
20260901064044 67 245 5.0 6.0 0.00 0.00 0.00 59 1011.1
20260901063541 67 249 3.0 5.0 0.00 0.00 0.00 59 1011.0
20260901063037 67 267 3.0 4.0 0.00 0.00 0.00 59 1011.0
20260901062532 67 225 3.0 4.0 0.00 0.00 0.00 59 1010.6
20260901062028 67 233 5.0 6.0 0.00 0.00 0.00 58 1010.6
20260901061524 68 292 5.0 8.0 0.00 0.00 0.00 57 1010.8
20260901061019 68 257 3.0 4.0 0.00 0.00 0.00 57 1010.9
20260901060513 68 267 2.0 2.0 0.00 0.00 0.00 56 1010.5
20260901060008 68 242 3.0 4.0 0.00 0.00 0.00 56 1010.5
20260901055504 69 260 5.0 6.0 0.00 0.00 0.00 55 1010.8
20260901055001 69 217 2.0 4.0 0.00 0.00 0.00 54 1010.6
20260901054457 69 263 3.0 4.0 0.00 0.00 0.00 53 1010.3
20260901053953 69 285 4.0 5.0 0.00 0.00 0.00 53 1010.4
20260901053448 70 300 5.0 6.0 0.00 0.00 0.00 52 1010.2
20260901052943 70 260 6.0 7.0 0.00 0.00 0.00 51 1010.5
20260901052439 70 263 5.0 6.0 0.00 0.00 0.00 51 1010.4
20260901051932 71 262 3.0 5.0 0.00 0.00 0.00 50 1010.4
20260901051428 71 231 6.0 7.0 0.00 0.00 0.00 49 1010.2
20260901050927 71 238 4.0 5.0 0.00 0.00 0.00 49 1010.0
20260901050423 72 273 4.0 4.0 0.00 0.00 0.00 48 1010.2
20260901045922 72 242 5.0 6.0 0.00 0.00 0.00 47 1010.0
20260901045417 72 247 3.0 4.0 0.00 0.00 0.00 46 1010.0
20260901044907 73 242 5.0 6.0 0.00 0.00 0.00 45 1009.8
20260901044403 73 265 5.0 6.0 0.00 0.00 0.00 45 1009.6
20260901043859 73 245 3.0 6.0 0.00 0.00 0.00 45 1009.7
20260901043355 73 248 3.0 4.0 0.00 0.00 0.00 45 1009.6
20260901042855 73 297 1.0 1.0 0.00 0.00 0.00 44 1009.5
20260901042349 73 248 3.0 4.0 0.00 0.00 0.00 43 1009.5
20260901041844 74 259 2.0 2.0 0.00 0.00 0.00 42 1009.3
20260901041339 74 250 1.0 2.0 0.00 0.00 0.00 42 1009.3
20260901040834 74 246 2.0 2.0 0.00 0.00 0.00 41 1009.4
20260901040333 75 282 2.0 4.0 0.00 0.00 0.00 40 1009.3
20260901035832 75 254 2.0 4.0 0.00 0.00 0.00 39 1009.1
20260901035331 75 239 3.0 4.0 0.00 0.00 0.00 38 1009.3
20260901034830 76 215 1.0 2.0 0.00 0.00 0.00 39 1009.2
20260901034325 76 229 2.0 2.0 0.00 0.00 0.00 39 1008.9
20260901033820 76 267 3.0 4.0 0.00 0.00 0.00 39 1008.9
20260901033319 77 261 1.0 1.0 0.00 0.00 0.00 40 1008.9
20260901032818 77 245 2.0 2.0 0.00 0.00 0.00 38 1008.7
20260901032317 77 274 2.0 2.0 0.00 0.00 0.00 38 1008.9
20260901031812 78 234 3.0 4.0 0.00 0.00 0.00 37 1008.7
20260901031308 78 247 5.0 6.0 0.00 0.00 0.00 36 1008.7
20260901030808 78 261 3.0 4.0 0.00 0.00 0.00 36 1008.4
20260901030303 79 274 5.0 6.0 0.00 0.00 0.00 36 1008.6
20260901025802 79 273 4.0 5.0 0.00 0.00 0.00 37 1008.5
20260901025257 79 274 4.0 5.0 0.00 0.00 0.00 37 1008.5
20260901024752 80 278 2.0 2.0 0.00 0.00 0.00 39 1008.6
20260901024251 80 128 0.0 0.0 0.00 0.00 0.00 38 1008.4
20260901023749 81 243 1.0 1.0 0.00 0.00 0.00 38 1008.0
20260901023244 81 248 1.0 1.0 0.00 0.00 0.00 36 1008.4
20260901022740 82 273 2.0 2.0 0.00 0.00 0.00 36 1008.3
20260901022235 82 246 1.0 1.0 0.00 0.00 0.00 36 1008.3
20260901021730 83 254 1.0 1.0 0.00 0.00 0.00 34 1008.2
20260901021226 83 247 1.0 1.0 0.00 0.00 0.00 33 1008.1
20260901020721 84 271 1.0 1.0 0.00 0.00 0.00 33 1008.1
20260901020217 84 230 2.0 2.0 0.00 0.00 0.00 32 1008.1
20260901015711 85 249 1.0 2.0 0.00 0.00 0.00 31 1008.1
20260901015207 86 237 2.0 2.0 0.00 0.00 0.00 30 1008.0
20260901014706 86 271 5.0 6.0 0.00 0.00 0.00 29 1008.0
20260901014203 87 251 8.0 11.0 0.00 0.00 0.00 28 1008.0
20260901013658 87 261 5.0 6.0 0.00 0.00 0.00 27 1008.1
20260901013154 88 261 4.0 5.0 0.00 0.00 0.00 28 1008.0
20260901012649 89 279 3.0 5.0 0.00 0.00 0.00 27 1007.9
20260901012144 89 271 2.0 2.0 0.00 0.00 0.00 26 1007.8
20260901011640 89 259 2.0 2.0 0.00 0.00 0.00 25 1007.9
20260901011139 89 254 3.0 4.0 0.00 0.00 0.00 27 1007.9
20260901010633 91 261 2.0 2.0 0.00 0.00 0.00 26 1008.2
20260901010132 91 39 0.0 0.0 0.00 0.00 0.00 24 1007.8
20260901005627 91 39 1.0 1.0 0.00 0.00 0.00 24 1007.9
20260901005122 91 49 0.0 1.0 0.00 0.00 0.00 25 1008.0
20260901004621 91 263 3.0 4.0 0.00 0.00 0.00 24 1008.1
20260901004116 91 262 0.0 1.0 0.00 0.00 0.00 26 1008.1
20260901003611 90 301 1.0 1.0 0.00 0.00 0.00 25 1007.9
20260901003109 91 255 3.0 4.0 0.00 0.00 0.00 23 1008.1
20260901002604 91 261 4.0 5.0 0.00 0.00 0.00 24 1008.1
20260901002059 91 33 0.0 0.0 0.00 0.00 0.00 22 1008.2
20260901001554 91 271 3.0 4.0 0.00 0.00 0.00 22 1008.2
20260901001049 91 232 3.0 5.0 0.00 0.00 0.00 21 1008.4
20260901000544 92 248 3.0 4.0 0.00 0.00 0.00 21 1008.4
20260901000039 91 259 2.0 2.0 0.00 0.00 0.00 21 1008.3
20260831235532 91 281 5.0 7.0 0.00 0.00 0.00 20 1008.4
20260831235028 91 274 3.0 4.0 0.00 0.00 0.00 20 1008.4
20260831234523 91 267 3.0 4.0 0.00 0.00 0.00 21 1008.5
20260831234019 91 249 4.0 5.0 0.00 0.00 0.00 20 1008.2
20260831233514 93 296 3.0 4.0 0.00 0.00 0.00 20 1008.4
20260831233009 93 45 1.0 1.0 0.00 0.00 0.00 21 1008.5
20260831232504 93 325 0.0 0.0 0.00 0.00 0.00 21 1008.3
20260831232000 92 20 0.0 1.0 0.00 0.00 0.00 21 1008.5
20260831231457 93 50 1.0 2.0 0.00 0.00 0.00 21 1008.5
20260831230952 92 254 2.0 2.0 0.00 0.00 0.00 21 1008.5
20260831230447 91 359 1.0 1.0 0.00 0.00 0.00 21 1008.5
20260831225946 92 243 3.0 4.0 0.00 0.00 0.00 20 1008.6
20260831225443 92 343 1.0 1.0 0.00 0.00 0.00 20 1008.9
20260831224937 91 223 0.0 0.0 0.00 0.00 0.00 20 1008.8
20260831224437 91 234 3.0 4.0 0.00 0.00 0.00 21 1008.8
20260831223932 92 251 1.0 1.0 0.00 0.00 0.00 19 1008.9
20260831223427 90 157 1.0 1.0 0.00 0.00 0.00 20 1009.1
20260831222924 91 266 3.0 5.0 0.00 0.00 0.00 20 1009.2
20260831222420 91 273 2.0 2.0 0.00 0.00 0.00 21 1009.5
20260831221915 91 261 2.0 2.0 0.00 0.00 0.00 20 1009.2
20260831221411 90 335 3.0 4.0 0.00 0.00 0.00 20 1009.3
20260831220906 90 241 4.0 5.0 0.00 0.00 0.00 23 1009.5
20260831220401 90 84 3.0 4.0 0.00 0.00 0.00 20 1009.4
20260831215856 90 271 2.0 2.0 0.00 0.00 0.00 20 1009.6
20260831215352 90 353 1.0 2.0 0.00 0.00 0.00 22 1009.5
20260831214848 89 151 3.0 4.0 0.00 0.00 0.00 22 1009.6
20260831214345 89 266 4.0 5.0 0.00 0.00 0.00 21 1009.6
20260831213846 90 277 5.0 6.0 0.00 0.00 0.00 22 1009.7
20260831213342 89 47 0.0 1.0 0.00 0.00 0.00 24 1009.7
20260831212837 89 333 2.0 2.0 0.00 0.00 0.00 22 1009.8